PST,Max TemperatureF,Mean TemperatureF,Min TemperatureF,Max Dew PointF,MeanDew PointF,Min DewpointF,Max Humidity, Mean Humidity, Min Humidity, Max Sea Level PressureIn, Mean Sea Level PressureIn, Min Sea Level PressureIn, Max VisibilityMiles, Mean VisibilityMiles, Min VisibilityMiles, Max Wind SpeedMPH, Mean Wind SpeedMPH, Max Gust SpeedMPH,PrecipitationIn, CloudCover, Events, WindDirDegrees
2012-2-1,46,34,21,34,28,20,96,69,41,30.39,30.16,29.98,10,8,1,21,7,28,0.06,6,Snow,264
2012-2-2,45,30,14,25,17,13,96,62,27,30.44,30.34,30.24,10,8,2,14,4,18,0.00,0,,78
2012-2-3,47,29,11,19,14,9,92,60,28,30.30,30.22,30.15,10,9,2,13,3,17,0.00,0,,87
2012-2-4,49,30,11,21,16,10,92,61,29,30.28,30.23,30.13,10,8,2,22,5,26,0.00,0,,125
2012-2-5,52,32,11,25,16,9,96,60,24,30.32,30.22,30.12,10,9,2,9,2,12,0.00,0,,114
2012-2-6,53,32,11,22,14,8,92,56,20,30.15,30.05,29.92,10,9,2,20,5,25,0.00,0,,135
2012-2-7,43,31,19,35,28,14,92,66,39,30.10,30.00,29.90,10,10,8,14,2,18,0.11,7,Rain,143
2012-2-8,51,40,28,35,32,27,100,75,50,30.37,30.27,30.13,10,8,4,7,1,8,T,4,,75
2012-2-9,61,43,25,34,28,23,100,63,26,30.37,30.28,30.17,10,7,2,20,3,23,0.00,0,,262
2012-2-10,49,36,22,41,35,21,100,81,61,30.17,30.08,30.04,10,7,0,22,5,26,0.09,7,Fog-Rain,236
2012-2-11,45,37,29,39,33,25,100,90,79,30.08,30.03,29.99,10,6,0,10,2,14,T,8,Fog-Rain,106
2012-2-12,45,33,20,32,27,19,100,73,45,30.10,29.92,29.79,10,6,2,22,3,26,0.08,5,Snow,227
2012-2-13,36,33,29,33,30,28,100,88,75,29.99,29.84,29.75,10,6,1,18,5,74,0.15,8,Snow,298
2012-2-14,42,34,25,31,26,20,92,72,51,30.06,29.94,29.83,10,8,0,30,5,38,0.15,6,Fog-Snow,320
2012-2-15,40,30,20,21,19,15,81,63,44,30.37,30.21,30.01,10,10,9,17,7,24,0.00,1,,19
2012-2-16,46,30,14,27,20,13,92,67,41,30.44,30.37,30.29,10,9,5,7,2,9,0.00,2,,97
2012-2-17,52,37,22,32,28,20,92,68,44,30.31,30.22,30.12,10,9,4,10,1,14,0.00,3,,245
2012-2-18,40,30,20,33,22,8,92,62,32,30.17,30.11,30.06,10,10,7,20,10,25,0.00,5,,307
2012-2-19,43,27,10,22,14,4,96,58,20,30.17,30.08,29.99,10,10,8,18,1,23,T,1,Snow,225
2012-2-20,38,33,27,34,29,22,100,85,69,30.26,30.10,29.98,10,6,1,9,2,13,0.08,8,Snow,226
2012-2-21,48,40,31,42,37,30,100,89,77,30.45,30.36,30.26,10,7,0,7,1,8,0.00,6,Fog,100
2012-2-22,54,40,26,39,31,25,100,73,46,30.43,30.35,30.22,10,5,0,22,5,28,0.00,3,Fog,321
2012-2-23,46,33,20,25,18,9,84,53,22,30.35,30.30,30.25,10,10,3,14,2,17,0.00,0,,271
2012-2-24,64,40,16,29,22,13,92,58,23,30.32,30.08,29.81,10,9,4,37,9,45,0.00,1,,207
2012-2-25,37,28,18,20,15,12,75,57,38,30.35,30.20,29.92,10,10,10,33,15,43,0.01,3,,295
2012-2-26,37,24,10,21,14,10,92,64,35,30.31,30.08,29.89,10,10,9,10,3,13,T,4,,2
2012-2-27,41,28,14,23,17,10,92,63,34,29.91,29.85,29.80,10,7,0,13,3,16,T,6,Fog-Snow,356
2012-2-28,39,25,11,28,20,10,92,70,48,30.02,29.89,29.71,10,8,0,33,9,43,0.04,5,Fog-Snow,206
2012-2-29,34,27,20,28,24,16,100,80,59,30.02,29.83,29.69,10,6,0,29,13,38,0.20,7,Fog-Snow,239